Location: Newark
(9.5333°N, 13.6833°W)
Time: 10:46:43
(UTC+00:00)

LightSail 2 - Visible Passes

Search period start: 26 February 2020 00:00
Search period end: 07 March 2020 00:00
Orbit: 698 x 723 km, 24.0° (Epoch: 25 February)

Date Brightness Start Highest point End Pass type
(mag) Time Alt. Az. Time Alt. Az. Time Alt. Az.
26 Feb 6.7 05:19:17 26° NNE 05:19:18 26° NNE 05:23:35 10° ENE visible
26 Feb 7.2 19:28:38 10° S 19:30:49 13° SSE 19:33:01 10° SE visible
26 Feb 6.9 21:11:24 10° SW 21:13:44 26° SW 21:13:44 26° SW visible
27 Feb 5.7 06:03:08 22° NW 06:06:12 50° NNE 06:11:13 10° E visible
27 Feb 6.0 20:12:56 10° SW 20:17:29 33° SSE 20:18:47 28° SE visible
28 Feb 6.4 05:08:06 34° NE 05:08:06 34° NE 05:12:03 10° E visible
28 Feb 5.8 20:58:58 10° WSW 21:02:46 51° WSW 21:02:46 51° WSW visible
29 Feb 5.1 05:52:01 38° WNW 05:54:00 83° NNE 05:59:11 10° ESE visible
29 Feb 5.3 20:00:13 10° SW 20:05:13 58° SSE 20:07:49 27° E visible
29 Feb 7.9 21:45:57 10° W 21:46:45 14° W 21:46:45 14° W visible
01 Mar 6.5 04:57:02 36° E 04:57:02 36° E 05:00:12 10° E visible
01 Mar 5.9 06:35:58 11° W 06:40:34 39° SSW 06:45:24 10° SE visible
01 Mar 5.4 20:46:50 10° W 20:51:47 57° NNW 20:51:47 57° NNW visible
02 Mar 5.2 05:40:59 52° WSW 05:41:43 57° SSW 05:46:47 10° SE visible
02 Mar 5.1 19:47:50 10° WSW 19:52:56 81° NNW 19:56:49 17° ENE visible
02 Mar 7.6 21:34:17 10° WNW 21:35:44 17° WNW 21:35:44 17° WNW visible
03 Mar 7.2 04:46:00 24° ESE 04:46:00 24° ESE 04:48:00 10° ESE visible
03 Mar 6.6 06:24:57 13° WSW 06:28:16 22° SSW 06:32:15 10° SSE visible
03 Mar 6.1 20:34:57 10° W 20:39:37 36° NNW 20:40:43 32° N visible
04 Mar 6.2 05:29:58 31° SSW 05:29:58 31° SSW 05:33:57 10° SE visible
04 Mar 5.8 19:35:44 10° W 19:40:40 48° NNW 19:45:34 10° NE visible
04 Mar 7.5 21:22:47 10° WNW 21:24:36 17° NW 21:24:36 17° NW visible
05 Mar 7.9 04:34:58 12° SE 04:34:58 12° SE 04:35:25 10° SE visible
05 Mar 7.2 06:13:54 10° SW 06:15:58 13° SSW 06:18:10 10° S visible
05 Mar 6.7 20:23:18 10° WNW 20:27:28 25° NNW 20:29:31 19° NNE visible
06 Mar 7.2 05:18:53 16° S 05:18:53 16° S 05:20:33 10° SSE visible
06 Mar 6.5 19:23:52 10° W 19:28:25 31° NNW 19:32:56 10° NE visible
06 Mar 7.4 21:11:17 10° NW 21:13:18 15° NNW 21:13:18 15° NNW visible
